Location: Newark
(34.6283°N, 36.0776°E)
Time: 08:53:58
(UTC+00:00)

Courier 1B Rocket - All Passes

Search period start: 19 September 2019 00:00
Search period end: 29 September 2019 00:00
Orbit: 920 x 1202 km, 28.2° (Epoch: 18 September)

Date Brightness Start Highest point End Pass type
(mag) Time Alt. Az. Time Alt. Az. Time Alt. Az.
19 Sep - 10:25:02 10° SSE 10:25:24 10° SSE 10:25:46 10° SSE daylight
19 Sep - 12:12:09 10° SW 12:18:19 28° SSE 12:24:09 10° ESE daylight
19 Sep - 14:04:33 10° WSW 14:11:26 47° S 14:17:52 10° E daylight
19 Sep - 15:58:00 10° WSW 16:04:38 48° S 16:10:49 10° ESE visible
19 Sep - 17:51:59 10° WSW 17:57:33 29° SSW 18:02:52 10° SE visible
20 Sep - 11:11:46 10° SSW 11:17:19 22° SSE 11:22:40 10° ESE daylight
20 Sep - 13:03:29 10° SW 13:10:24 42° SSE 13:16:53 10° E daylight
20 Sep - 14:56:45 10° WSW 15:03:38 51° S 15:10:03 10° ESE daylight
20 Sep - 16:50:33 10° W 16:56:42 36° SSW 17:02:31 10° SE visible
20 Sep - 18:45:43 10° WSW 18:49:21 16° SSW 18:52:55 10° S visible
21 Sep - 10:11:55 10° S 10:16:19 16° SSE 10:20:40 10° ESE daylight
21 Sep - 12:02:33 10° SW 12:09:21 36° SSE 12:15:47 10° E daylight
21 Sep - 13:55:30 10° WSW 14:02:36 51° S 14:09:12 10° ESE daylight
21 Sep - 15:49:10 10° W 15:55:48 44° SSW 16:01:58 10° ESE visible
21 Sep - 17:43:37 10° WSW 17:48:36 22° SSW 17:53:23 10° SSE visible
22 Sep - 09:13:31 10° SSE 09:15:21 11° SSE 09:17:11 10° SE daylight
22 Sep - 11:01:50 10° SW 11:08:18 29° SSE 11:14:31 10° ESE daylight
22 Sep - 12:54:18 10° WSW 13:01:30 48° S 13:08:16 10° E daylight
22 Sep - 14:47:50 10° W 14:54:48 49° S 15:01:17 10° ESE daylight
22 Sep - 16:41:56 10° WSW 16:47:48 30° SSW 16:53:20 10° SE visible
22 Sep - 18:40:13 10° SSW 18:40:20 10° SSW 18:40:27 10° SSW visible
23 Sep - 10:01:26 10° SSW 10:07:16 23° SSE 10:12:57 10° ESE daylight
23 Sep - 11:53:12 10° SW 12:00:24 43° SSE 12:07:14 10° E daylight
23 Sep - 13:46:31 10° WSW 13:53:45 52° S 14:00:29 10° ESE daylight
23 Sep - 15:40:25 10° W 15:46:55 37° SSW 15:53:00 10° SE daylight
23 Sep - 17:35:41 10° WSW 17:39:36 16° SSW 17:43:23 10° S visible
24 Sep - 09:01:34 10° S 09:06:15 17° SSE 09:10:53 10° ESE daylight
24 Sep - 10:52:17 10° SW 10:59:18 37° SSE 11:06:03 10° E daylight
24 Sep - 12:45:14 10° WSW 12:52:38 52° S 12:59:35 10° ESE daylight
24 Sep - 14:38:59 10° W 14:45:56 45° SSW 14:52:25 10° ESE daylight
24 Sep - 16:33:31 10° WSW 16:38:49 23° SSW 16:43:51 10° SSE visible
25 Sep - 08:03:00 10° SSE 08:05:16 11° SSE 08:07:33 10° SE daylight
25 Sep - 09:51:34 10° SW 09:58:12 31° SSE 10:04:42 10° E daylight
25 Sep - 11:44:02 10° WSW 11:51:28 50° S 11:58:34 10° E daylight
25 Sep - 13:37:35 10° W 13:44:52 50° S 13:51:41 10° ESE daylight
25 Sep - 15:31:45 10° W 15:37:57 31° SSW 15:43:47 10° SE daylight
25 Sep - 17:29:14 10° SW 17:30:32 11° SSW 17:31:50 10° SSW visible
26 Sep - 08:51:13 10° SSW 08:57:09 24° SSE 09:03:03 10° ESE daylight
26 Sep - 10:42:58 10° WSW 10:50:18 45° SSE 10:57:26 10° E daylight
26 Sep - 12:36:16 10° WSW 12:43:44 53° S 12:50:48 10° ESE daylight
26 Sep - 14:30:11 10° W 14:37:00 38° SSW 14:43:24 10° SE daylight
26 Sep - 16:25:30 10° WSW 16:29:46 17° SSW 16:33:53 10° S visible
27 Sep - 07:51:23 10° S 07:56:08 17° SSE 08:00:55 10° ESE daylight
27 Sep - 09:42:05 10° SW 09:49:10 38° SSE 09:56:10 10° E daylight
27 Sep - 11:35:00 10° WSW 11:42:33 53° S 11:49:49 10° ESE daylight
27 Sep - 13:28:43 10° W 13:35:57 46° SSW 13:42:46 10° ESE daylight
27 Sep - 15:23:17 10° WSW 15:28:55 24° SSW 15:34:18 10° SSE daylight
28 Sep - 06:52:53 10° SSE 06:55:11 11° SSE 06:57:31 10° SE daylight
28 Sep - 08:41:26 10° SW 08:48:03 31° SSE 08:54:43 10° E daylight
28 Sep - 10:33:50 10° WSW 10:41:21 51° S 10:48:43 10° E daylight
28 Sep - 12:27:20 10° W 12:34:49 51° S 12:41:57 10° ESE daylight
28 Sep - 14:21:30 10° W 14:28:00 32° SSW 14:34:10 10° SE daylight
28 Sep - 16:18:39 10° SW 16:20:40 11° SSW 16:22:39 10° SSW visible
